Year,Month,Day,Hour,Minute,Value (Times are PST for temperature in C)
2016,06,16,00,00,8.50
2016,06,16,00,01,8.50
2016,06,16,00,02,8.40
2016,06,16,00,03,8.40
2016,06,16,00,04,8.40
2016,06,16,00,05,8.40
2016,06,16,00,06,8.40
2016,06,16,00,07,8.40
2016,06,16,00,08,8.30
2016,06,16,00,09,8.30
2016,06,16,00,10,8.30
2016,06,16,00,11,8.30
2016,06,16,00,12,8.30
2016,06,16,00,13,8.30
2016,06,16,00,14,8.30
2016,06,16,00,15,8.30
2016,06,16,00,16,8.30
2016,06,16,00,17,8.30
2016,06,16,00,18,8.30
2016,06,16,00,19,8.30
2016,06,16,00,20,8.30
2016,06,16,00,21,8.30
2016,06,16,00,22,8.20
2016,06,16,00,23,8.20
2016,06,16,00,24,8.20
2016,06,16,00,25,8.20
2016,06,16,00,26,8.20
2016,06,16,00,27,8.20
2016,06,16,00,28,8.20
2016,06,16,00,29,8.20
2016,06,16,00,30,8.10
2016,06,16,00,31,8.10
2016,06,16,00,32,8.10
2016,06,16,00,33,8.10
2016,06,16,00,34,8.10
2016,06,16,00,35,8.10
2016,06,16,00,36,8.00
2016,06,16,00,37,8.00
2016,06,16,00,38,8.00
2016,06,16,00,39,8.00
2016,06,16,00,40,8.00
2016,06,16,00,41,7.90
2016,06,16,00,42,7.90
2016,06,16,00,43,7.90
2016,06,16,00,44,7.90
2016,06,16,00,45,7.90
2016,06,16,00,46,7.90
2016,06,16,00,47,7.90
2016,06,16,00,48,7.90
2016,06,16,00,49,7.90
2016,06,16,00,50,7.90
2016,06,16,00,51,7.90
2016,06,16,00,52,7.90
2016,06,16,00,53,7.90
2016,06,16,00,54,7.90
2016,06,16,00,55,7.90
2016,06,16,00,56,7.80
2016,06,16,00,57,7.80
2016,06,16,00,58,7.80
2016,06,16,00,59,7.80
2016,06,16,01,00,7.80
2016,06,16,01,01,7.80
2016,06,16,01,02,7.80
2016,06,16,01,03,7.80
2016,06,16,01,04,7.80
2016,06,16,01,05,7.80
2016,06,16,01,06,7.80
2016,06,16,01,07,7.80
2016,06,16,01,08,7.80
2016,06,16,01,09,7.70
2016,06,16,01,10,7.70
2016,06,16,01,11,7.70
2016,06,16,01,12,7.70
2016,06,16,01,13,7.70
2016,06,16,01,14,7.70
2016,06,16,01,15,7.70
2016,06,16,01,16,7.70
2016,06,16,01,17,7.70
2016,06,16,01,18,7.70
2016,06,16,01,19,7.70
2016,06,16,01,20,7.70
2016,06,16,01,21,7.70
2016,06,16,01,22,7.70
2016,06,16,01,23,7.60
2016,06,16,01,24,7.60
2016,06,16,01,25,7.60
2016,06,16,01,26,7.60
2016,06,16,01,27,7.60
2016,06,16,01,28,7.60
2016,06,16,01,29,7.60
2016,06,16,01,30,7.60
2016,06,16,01,31,7.60
2016,06,16,01,32,7.50
2016,06,16,01,33,7.50
2016,06,16,01,34,7.50
2016,06,16,01,35,7.50
2016,06,16,01,36,7.40
2016,06,16,01,37,7.40
2016,06,16,01,38,7.40
2016,06,16,01,39,7.40
2016,06,16,01,40,7.40
2016,06,16,01,41,7.40
2016,06,16,01,42,7.30
2016,06,16,01,43,7.30
2016,06,16,01,44,7.30
2016,06,16,01,45,7.30
2016,06,16,01,46,7.30
2016,06,16,01,47,7.30
2016,06,16,01,48,7.20
2016,06,16,01,49,7.20
2016,06,16,01,50,7.20
2016,06,16,01,51,7.20
2016,06,16,01,52,7.20
2016,06,16,01,53,7.20
2016,06,16,01,54,7.20
2016,06,16,01,55,7.20
2016,06,16,01,56,7.20
2016,06,16,01,57,7.20
2016,06,16,01,58,7.20
2016,06,16,01,59,7.20
2016,06,16,02,00,7.20
2016,06,16,02,01,7.10
2016,06,16,02,02,7.10
2016,06,16,02,03,7.10
2016,06,16,02,04,7.10
2016,06,16,02,05,7.10
2016,06,16,02,06,7.10
2016,06,16,02,07,7.10
2016,06,16,02,08,7.10
2016,06,16,02,09,7.10
2016,06,16,02,10,7.10
2016,06,16,02,11,7.10
2016,06,16,02,12,7.10
2016,06,16,02,13,7.10
2016,06,16,02,14,7.10
2016,06,16,02,15,7.10
2016,06,16,02,16,7.10
2016,06,16,02,17,7.00
2016,06,16,02,18,7.00
2016,06,16,02,19,7.00
2016,06,16,02,20,7.00
2016,06,16,02,21,7.00
2016,06,16,02,22,6.90
2016,06,16,02,23,6.90
2016,06,16,02,24,6.90
2016,06,16,02,25,6.90
2016,06,16,02,26,6.90
2016,06,16,02,27,6.90
2016,06,16,02,28,6.80
2016,06,16,02,29,6.80
2016,06,16,02,30,6.80
2016,06,16,02,31,6.80
2016,06,16,02,32,6.80
2016,06,16,02,33,6.80
2016,06,16,02,34,6.80
2016,06,16,02,35,6.80
2016,06,16,02,36,6.80
2016,06,16,02,37,6.70
2016,06,16,02,38,6.70
2016,06,16,02,39,6.70
2016,06,16,02,40,6.70
2016,06,16,02,41,6.70
2016,06,16,02,42,6.70
2016,06,16,02,43,6.60
2016,06,16,02,44,6.60
2016,06,16,02,45,6.60
2016,06,16,02,46,6.60
2016,06,16,02,47,6.50
2016,06,16,02,48,6.50
2016,06,16,02,49,6.50
2016,06,16,02,50,6.50
2016,06,16,02,51,6.50
2016,06,16,02,52,6.50
2016,06,16,02,53,6.50
2016,06,16,02,54,6.50
2016,06,16,02,55,6.50
2016,06,16,02,56,6.50
2016,06,16,02,57,6.50
2016,06,16,02,58,6.50
2016,06,16,02,59,6.50
2016,06,16,03,00,6.50
2016,06,16,03,01,6.50
2016,06,16,03,02,6.50
2016,06,16,03,03,6.50
2016,06,16,03,04,6.50
2016,06,16,03,05,6.50
2016,06,16,03,06,6.50
2016,06,16,03,07,6.50
2016,06,16,03,08,6.50
2016,06,16,03,09,6.50
2016,06,16,03,10,6.50
2016,06,16,03,11,6.50
2016,06,16,03,12,6.50
2016,06,16,03,13,6.50
2016,06,16,03,14,6.40
2016,06,16,03,15,6.40
2016,06,16,03,16,6.40
2016,06,16,03,17,6.40
2016,06,16,03,18,6.40
2016,06,16,03,19,6.40
2016,06,16,03,20,6.40
2016,06,16,03,21,6.40
2016,06,16,03,22,6.40
2016,06,16,03,23,6.40
2016,06,16,03,24,6.40
2016,06,16,03,25,6.30
2016,06,16,03,26,6.30
2016,06,16,03,27,6.30
2016,06,16,03,28,6.30
2016,06,16,03,29,6.30
2016,06,16,03,30,6.40
2016,06,16,03,31,6.40
2016,06,16,03,32,6.40
2016,06,16,03,33,6.40
2016,06,16,03,34,6.40
2016,06,16,03,35,6.40
2016,06,16,03,36,6.40
2016,06,16,03,37,6.40
2016,06,16,03,38,6.50
2016,06,16,03,39,6.40
2016,06,16,03,40,6.50
2016,06,16,03,41,6.50
2016,06,16,03,42,6.50
2016,06,16,03,43,6.50
2016,06,16,03,44,6.50
2016,06,16,03,49,6.50
2016,06,16,03,50,6.50
2016,06,16,03,51,6.50
2016,06,16,03,52,6.50
2016,06,16,03,53,6.50
2016,06,16,03,54,6.50
2016,06,16,03,55,6.50
2016,06,16,03,56,6.50
2016,06,16,03,57,6.50
2016,06,16,03,58,6.50
2016,06,16,03,59,6.50
2016,06,16,04,00,6.50
2016,06,16,04,01,6.50
2016,06,16,04,02,6.40
2016,06,16,04,03,6.40
2016,06,16,04,04,6.40
2016,06,16,04,05,6.40
2016,06,16,04,06,6.40
2016,06,16,04,07,6.40
2016,06,16,04,08,6.40
2016,06,16,04,09,6.40
2016,06,16,04,10,6.40
2016,06,16,04,11,6.50
2016,06,16,04,12,6.50
2016,06,16,04,13,6.50
2016,06,16,04,14,6.50
2016,06,16,04,15,6.50
2016,06,16,04,16,6.50
2016,06,16,04,17,6.50
2016,06,16,04,18,6.50
2016,06,16,04,19,6.50
2016,06,16,04,20,6.60
2016,06,16,04,21,6.60
2016,06,16,04,22,6.60
2016,06,16,04,23,6.60
2016,06,16,04,24,6.60
2016,06,16,04,25,6.60
2016,06,16,04,26,6.60
2016,06,16,04,27,6.60
2016,06,16,04,28,6.60
2016,06,16,04,29,6.70
2016,06,16,04,30,6.70
2016,06,16,04,31,6.70
2016,06,16,04,32,6.70
2016,06,16,04,33,6.70
2016,06,16,04,34,6.70
2016,06,16,04,35,6.70
2016,06,16,04,36,6.70
2016,06,16,04,37,6.70
2016,06,16,04,38,6.70
2016,06,16,04,39,6.70
2016,06,16,04,40,6.70
2016,06,16,04,41,6.70
2016,06,16,04,42,6.70
2016,06,16,04,43,6.70
2016,06,16,04,44,6.70
2016,06,16,04,45,6.70
2016,06,16,04,46,6.70
2016,06,16,04,47,6.70
2016,06,16,04,48,6.70
2016,06,16,04,49,6.70
2016,06,16,04,50,6.70
2016,06,16,04,51,6.70
2016,06,16,04,52,6.70
2016,06,16,04,53,6.60
2016,06,16,04,54,6.60
2016,06,16,04,55,6.60
2016,06,16,04,56,6.60
2016,06,16,04,57,6.60
2016,06,16,04,58,6.60
2016,06,16,04,59,6.60
2016,06,16,05,00,6.60
2016,06,16,05,01,6.60
2016,06,16,05,02,6.60
2016,06,16,05,03,6.50
2016,06,16,05,04,6.50
2016,06,16,05,05,6.50
2016,06,16,05,06,6.50
2016,06,16,05,07,6.50
2016,06,16,05,08,6.50
2016,06,16,05,09,6.50
2016,06,16,05,10,6.50
2016,06,16,05,11,6.50
2016,06,16,05,12,6.40
2016,06,16,05,13,6.40
2016,06,16,05,14,6.40
2016,06,16,05,15,6.40
2016,06,16,05,16,6.40
2016,06,16,05,17,6.40
2016,06,16,05,18,6.40
2016,06,16,05,19,6.30
2016,06,16,05,20,6.30
2016,06,16,05,21,6.30
2016,06,16,05,22,6.20
2016,06,16,05,23,6.20
2016,06,16,05,24,6.20
2016,06,16,05,25,6.10
2016,06,16,05,26,6.10
2016,06,16,05,27,6.10
2016,06,16,05,28,6.10
2016,06,16,05,29,6.10
2016,06,16,05,30,6.10
2016,06,16,05,31,6.10
2016,06,16,05,32,6.10
2016,06,16,05,33,6.10
2016,06,16,05,34,6.00
2016,06,16,05,35,6.00
2016,06,16,05,36,6.00
2016,06,16,05,37,5.90
2016,06,16,05,38,5.90
2016,06,16,05,39,5.90
2016,06,16,05,40,5.90
2016,06,16,05,41,5.90
2016,06,16,05,42,5.90
2016,06,16,05,43,5.90
2016,06,16,05,44,5.90
2016,06,16,05,45,5.80
2016,06,16,05,46,5.80
2016,06,16,05,47,5.80
2016,06,16,05,48,5.80
2016,06,16,05,49,5.80
2016,06,16,05,50,5.80
2016,06,16,05,51,5.80
2016,06,16,05,52,5.80
2016,06,16,05,53,5.80
2016,06,16,05,54,5.80
2016,06,16,05,55,5.80
2016,06,16,05,56,5.80
2016,06,16,05,57,5.80
2016,06,16,05,58,5.80
2016,06,16,05,59,5.80
2016,06,16,06,00,5.80
2016,06,16,06,01,5.80
2016,06,16,06,02,5.80
2016,06,16,06,03,5.80
2016,06,16,06,04,5.80
2016,06,16,06,05,5.80
2016,06,16,06,06,5.80
2016,06,16,06,07,5.90
2016,06,16,06,08,5.80
2016,06,16,06,09,5.80
2016,06,16,06,10,5.80
2016,06,16,06,11,5.90
2016,06,16,06,12,5.90
2016,06,16,06,13,5.90
2016,06,16,06,14,5.90
2016,06,16,06,15,5.90
2016,06,16,06,16,5.90
2016,06,16,06,17,5.90
2016,06,16,06,18,5.90
2016,06,16,06,19,6.00
2016,06,16,06,20,6.00
2016,06,16,06,21,6.00
2016,06,16,06,22,6.10
2016,06,16,06,23,6.10
2016,06,16,06,24,6.20
2016,06,16,06,25,6.20
2016,06,16,06,26,6.30
2016,06,16,06,27,6.30
2016,06,16,06,28,6.40
2016,06,16,06,29,6.50
2016,06,16,06,30,6.50
2016,06,16,06,31,6.60
2016,06,16,06,32,6.70
2016,06,16,06,33,6.70
2016,06,16,06,34,6.80
2016,06,16,06,35,6.90
2016,06,16,06,36,7.00
2016,06,16,06,37,7.00
2016,06,16,06,38,7.20
2016,06,16,06,39,7.20
2016,06,16,06,40,7.30
2016,06,16,06,41,7.40
2016,06,16,06,42,7.50
2016,06,16,06,43,7.60
2016,06,16,06,44,7.80
2016,06,16,06,45,7.90
2016,06,16,06,46,8.00
2016,06,16,06,47,8.10
2016,06,16,06,48,8.30
2016,06,16,06,49,8.40
2016,06,16,06,50,8.50
2016,06,16,06,51,8.60
2016,06,16,06,52,8.70
2016,06,16,06,53,8.80
2016,06,16,06,54,8.90
2016,06,16,06,55,9.00
2016,06,16,06,56,9.10
2016,06,16,06,57,9.20
2016,06,16,06,58,9.20
2016,06,16,06,59,9.20
2016,06,16,07,00,9.20
2016,06,16,07,01,9.20
2016,06,16,07,02,9.20
2016,06,16,07,03,9.20
2016,06,16,07,04,9.20
2016,06,16,07,05,9.20
2016,06,16,07,06,9.30
2016,06,16,07,07,9.40
2016,06,16,07,08,9.50
2016,06,16,07,09,9.60
2016,06,16,07,10,9.70
2016,06,16,07,11,9.70
2016,06,16,07,12,9.80
2016,06,16,07,13,9.80
2016,06,16,07,14,9.90
2016,06,16,07,15,9.90
2016,06,16,07,16,9.90
2016,06,16,07,17,9.90
2016,06,16,07,18,10.00
2016,06,16,07,19,10.00
2016,06,16,07,20,10.00
2016,06,16,07,21,10.00
2016,06,16,07,22,10.00
2016,06,16,07,23,10.10
2016,06,16,07,24,10.10
2016,06,16,07,25,10.10
2016,06,16,07,26,10.20
2016,06,16,07,27,10.20
2016,06,16,07,28,10.30
2016,06,16,07,29,10.30
2016,06,16,07,30,10.30
2016,06,16,07,31,10.30
2016,06,16,07,32,10.40
2016,06,16,07,33,10.50
2016,06,16,07,34,10.50
2016,06,16,07,35,10.60
2016,06,16,07,36,10.70
2016,06,16,07,37,10.80
2016,06,16,07,38,10.90
2016,06,16,07,39,10.90
2016,06,16,07,40,10.80
2016,06,16,07,41,10.80
2016,06,16,07,42,10.80
2016,06,16,07,43,10.70
2016,06,16,07,44,10.70
2016,06,16,07,45,10.70
2016,06,16,07,46,10.80
2016,06,16,07,47,10.80
2016,06,16,07,48,10.80
2016,06,16,07,49,10.90
2016,06,16,07,50,10.90
2016,06,16,07,51,10.90
2016,06,16,07,52,10.90
2016,06,16,07,53,11.00
2016,06,16,07,54,11.10
2016,06,16,07,55,11.20
2016,06,16,07,56,11.30
2016,06,16,07,57,11.40
2016,06,16,07,58,11.50
2016,06,16,07,59,11.60
2016,06,16,08,00,11.80
2016,06,16,08,01,11.80
2016,06,16,08,02,12.00
2016,06,16,08,03,12.10
2016,06,16,08,04,12.20
2016,06,16,08,05,12.30
2016,06,16,08,06,12.40
2016,06,16,08,07,12.50
2016,06,16,08,08,12.60
2016,06,16,08,09,12.60
2016,06,16,08,10,12.70
2016,06,16,08,11,12.80
2016,06,16,08,12,12.80
2016,06,16,08,13,12.90
2016,06,16,08,14,13.00
2016,06,16,08,15,13.10
2016,06,16,08,16,13.20
2016,06,16,08,17,13.30
2016,06,16,08,18,13.30
2016,06,16,08,19,13.40
2016,06,16,08,20,13.50
2016,06,16,08,21,13.60
2016,06,16,08,22,13.70
2016,06,16,08,23,13.80
2016,06,16,08,24,13.80
2016,06,16,08,25,13.80
2016,06,16,08,26,13.90
2016,06,16,08,27,13.90
2016,06,16,08,28,13.90
2016,06,16,08,29,14.00
2016,06,16,08,30,14.00
2016,06,16,08,31,14.10
2016,06,16,08,32,14.20
2016,06,16,08,33,14.30
2016,06,16,08,34,14.40
2016,06,16,08,35,14.50
2016,06,16,08,36,14.60
2016,06,16,08,37,14.70
2016,06,16,08,38,14.70
2016,06,16,08,39,14.70
2016,06,16,08,40,14.70
2016,06,16,08,41,14.70
2016,06,16,08,42,14.80
2016,06,16,08,43,14.80
2016,06,16,08,44,14.90
2016,06,16,08,45,15.00
2016,06,16,08,46,15.00
2016,06,16,08,47,15.00
2016,06,16,08,48,15.10
2016,06,16,08,49,15.20
2016,06,16,08,50,15.20
2016,06,16,08,51,15.20
2016,06,16,08,52,15.10
2016,06,16,08,53,15.00
2016,06,16,08,54,15.00
2016,06,16,08,55,15.00
2016,06,16,08,56,15.00
2016,06,16,08,57,15.00
2016,06,16,08,58,14.90
2016,06,16,08,59,14.80
2016,06,16,09,00,14.80
2016,06,16,09,01,14.80
2016,06,16,09,02,14.80
2016,06,16,09,03,14.70
2016,06,16,09,04,14.70
2016,06,16,09,05,14.60
2016,06,16,09,06,14.60
2016,06,16,09,07,14.60
2016,06,16,09,08,14.60
2016,06,16,09,09,14.60
2016,06,16,09,10,14.70
2016,06,16,09,11,14.70
2016,06,16,09,12,14.70
2016,06,16,09,13,14.70
2016,06,16,09,14,14.80
2016,06,16,09,15,14.80
2016,06,16,09,16,14.80
2016,06,16,09,17,14.90
2016,06,16,09,18,14.90
2016,06,16,09,19,15.00
2016,06,16,09,20,15.00
2016,06,16,09,21,15.00
2016,06,16,09,22,15.00
2016,06,16,09,23,15.00
2016,06,16,09,24,15.20
2016,06,16,09,25,15.30
2016,06,16,09,26,15.30
2016,06,16,09,27,15.40
2016,06,16,09,28,15.50
2016,06,16,09,29,15.50
2016,06,16,09,30,15.60
2016,06,16,09,31,15.60
2016,06,16,09,32,15.60
2016,06,16,09,33,15.60
2016,06,16,09,34,15.50
2016,06,16,09,35,15.50
2016,06,16,09,36,15.60
2016,06,16,09,37,15.70
2016,06,16,09,38,15.70
2016,06,16,09,39,15.70
2016,06,16,09,40,15.80
2016,06,16,09,41,16.00
2016,06,16,09,42,16.10
2016,06,16,09,43,16.20
2016,06,16,09,44,16.30
2016,06,16,09,45,16.30
2016,06,16,09,46,16.10
2016,06,16,09,47,15.90
2016,06,16,09,48,15.60
2016,06,16,09,49,15.40
2016,06,16,09,50,15.20
2016,06,16,09,51,15.20
2016,06,16,09,52,15.20
2016,06,16,09,53,15.20
2016,06,16,09,54,15.20
2016,06,16,09,55,15.30
2016,06,16,09,56,15.20
2016,06,16,09,57,15.20
2016,06,16,09,58,15.30
2016,06,16,09,59,15.30
2016,06,16,10,00,15.40
2016,06,16,10,01,15.40
2016,06,16,10,02,15.50
2016,06,16,10,03,15.50
2016,06,16,10,04,15.50
2016,06,16,10,05,15.50
2016,06,16,10,06,15.40
2016,06,16,10,07,15.30
2016,06,16,10,08,15.30
2016,06,16,10,09,15.30
2016,06,16,10,10,15.30
2016,06,16,10,11,15.30
2016,06,16,10,12,15.30
2016,06,16,10,13,15.40
2016,06,16,10,14,15.40
2016,06,16,10,15,15.50
2016,06,16,10,16,15.70
2016,06,16,10,17,15.70
2016,06,16,10,18,15.70
2016,06,16,10,19,15.60
2016,06,16,10,20,15.50
2016,06,16,10,21,15.30
2016,06,16,10,22,15.20
2016,06,16,10,23,15.10
2016,06,16,10,24,15.00
2016,06,16,10,25,15.00
2016,06,16,10,26,14.90
2016,06,16,10,27,14.80
2016,06,16,10,28,14.80
2016,06,16,10,29,14.70
2016,06,16,10,30,14.50
2016,06,16,10,31,14.40
2016,06,16,10,32,14.30
2016,06,16,10,33,14.20
2016,06,16,10,34,14.10
2016,06,16,10,35,14.00
2016,06,16,10,36,13.90
2016,06,16,10,37,13.90
2016,06,16,10,38,13.90
2016,06,16,10,39,13.80
2016,06,16,10,40,13.80
2016,06,16,10,41,13.80
2016,06,16,10,42,13.70
2016,06,16,10,43,13.60
2016,06,16,10,44,13.60
2016,06,16,10,45,13.50
2016,06,16,10,46,13.40
2016,06,16,10,47,13.40
2016,06,16,10,48,13.40
2016,06,16,10,49,13.50
2016,06,16,10,50,13.50
2016,06,16,10,51,13.50
2016,06,16,10,52,13.50
2016,06,16,10,53,13.50
2016,06,16,10,54,13.50
2016,06,16,10,55,13.50
2016,06,16,10,56,13.50
2016,06,16,10,57,13.50
2016,06,16,10,58,13.50
2016,06,16,10,59,13.40
2016,06,16,11,00,13.40
2016,06,16,11,01,13.40
2016,06,16,11,02,13.50
2016,06,16,11,03,13.50
2016,06,16,11,04,13.50
2016,06,16,11,05,13.50
2016,06,16,11,06,13.50
2016,06,16,11,07,13.60
2016,06,16,11,08,13.70
2016,06,16,11,09,13.70
2016,06,16,11,10,13.80
2016,06,16,11,11,13.80
2016,06,16,11,12,13.80
2016,06,16,11,13,13.80
2016,06,16,11,14,13.80
2016,06,16,11,15,13.90
2016,06,16,11,16,13.90
2016,06,16,11,17,14.00
2016,06,16,11,18,14.10
2016,06,16,11,19,14.20
2016,06,16,11,20,14.40
2016,06,16,11,21,14.60
2016,06,16,11,22,14.80
2016,06,16,11,23,14.80
2016,06,16,11,24,14.90
2016,06,16,11,25,14.90
2016,06,16,11,26,14.90
2016,06,16,11,27,15.00
2016,06,16,11,28,15.00
2016,06,16,11,29,15.20
2016,06,16,11,30,15.30
2016,06,16,11,31,15.40
2016,06,16,11,32,15.40
2016,06,16,11,33,15.50
2016,06,16,11,34,15.60
2016,06,16,11,35,15.60
2016,06,16,11,36,15.60
2016,06,16,11,37,15.50
2016,06,16,11,38,15.50
2016,06,16,11,39,15.30
2016,06,16,11,40,15.20
2016,06,16,11,41,15.10
2016,06,16,11,42,15.00
2016,06,16,11,43,15.00
2016,06,16,11,44,15.00
2016,06,16,11,45,15.00
2016,06,16,11,46,15.00
2016,06,16,11,47,14.90
2016,06,16,11,48,14.80
2016,06,16,11,49,14.70
2016,06,16,11,50,14.60
2016,06,16,11,51,14.50
2016,06,16,11,52,14.40
2016,06,16,11,53,14.40
2016,06,16,11,54,14.30
2016,06,16,11,55,14.30
2016,06,16,11,56,14.30
2016,06,16,11,57,14.20
2016,06,16,11,58,14.30
2016,06,16,11,59,14.30
2016,06,16,12,00,14.30
2016,06,16,12,01,14.30
2016,06,16,12,02,14.30
2016,06,16,12,03,14.40
2016,06,16,12,04,14.40
2016,06,16,12,05,14.50
2016,06,16,12,06,14.50
2016,06,16,12,07,14.60
2016,06,16,12,08,14.60
2016,06,16,12,09,14.70
2016,06,16,12,10,14.70
2016,06,16,12,11,14.70
2016,06,16,12,12,14.70
2016,06,16,12,13,14.70
2016,06,16,12,14,14.80
2016,06,16,12,15,14.90
2016,06,16,12,16,15.00
2016,06,16,12,17,15.10
2016,06,16,12,18,15.30
2016,06,16,12,19,15.50
2016,06,16,12,20,15.80
2016,06,16,12,21,16.00
2016,06,16,12,22,16.10
2016,06,16,12,23,16.10
2016,06,16,12,24,16.00
2016,06,16,12,25,16.00
2016,06,16,12,26,15.80
2016,06,16,12,27,15.70
2016,06,16,12,28,15.70
2016,06,16,12,29,15.70
2016,06,16,12,30,15.70
2016,06,16,12,31,15.80
2016,06,16,12,32,15.80
2016,06,16,12,33,15.80
2016,06,16,12,34,15.90
2016,06,16,12,35,15.90
2016,06,16,12,36,16.10
2016,06,16,12,37,16.20
2016,06,16,12,38,16.40
2016,06,16,12,39,16.50
2016,06,16,12,40,16.60
2016,06,16,12,41,16.70
2016,06,16,12,42,16.70
2016,06,16,12,43,16.80
2016,06,16,12,44,16.90
2016,06,16,12,45,16.80
2016,06,16,12,46,16.80
2016,06,16,12,47,16.80
2016,06,16,12,48,16.80
2016,06,16,12,49,16.70
2016,06,16,12,50,16.70
2016,06,16,12,51,16.60
2016,06,16,12,52,16.50
2016,06,16,12,53,16.30
2016,06,16,12,54,16.30
2016,06,16,12,55,16.20
2016,06,16,12,56,16.20
2016,06,16,12,57,16.10
2016,06,16,12,58,16.10
2016,06,16,12,59,16.10
2016,06,16,13,00,16.00
2016,06,16,13,01,15.90
2016,06,16,13,02,15.90
2016,06,16,13,03,15.80
2016,06,16,13,04,15.80
2016,06,16,13,05,15.80
2016,06,16,13,06,15.80
2016,06,16,13,07,15.80
2016,06,16,13,08,15.80
2016,06,16,13,09,15.80
2016,06,16,13,10,15.70
2016,06,16,13,11,15.70
2016,06,16,13,12,15.60
2016,06,16,13,13,15.40
2016,06,16,13,14,15.20
2016,06,16,13,15,15.00
2016,06,16,13,16,14.70
2016,06,16,13,17,14.50
2016,06,16,13,18,14.30
2016,06,16,13,19,14.10
2016,06,16,13,20,13.90
2016,06,16,13,21,13.80
2016,06,16,13,22,13.70
2016,06,16,13,23,13.70
2016,06,16,13,24,13.70
2016,06,16,13,25,13.70
2016,06,16,13,26,13.80
2016,06,16,13,27,13.80
2016,06,16,13,28,13.90
2016,06,16,13,29,14.00
2016,06,16,13,30,14.10
2016,06,16,13,31,14.20
2016,06,16,13,32,14.20
2016,06,16,13,33,14.20
2016,06,16,13,34,14.30
2016,06,16,13,35,14.40
2016,06,16,13,36,14.50
2016,06,16,13,37,14.60
2016,06,16,13,38,14.70
2016,06,16,13,39,14.80
2016,06,16,13,40,14.90
2016,06,16,13,41,15.00
2016,06,16,13,42,15.00
2016,06,16,13,43,15.00
2016,06,16,13,44,15.10
2016,06,16,13,45,15.20
2016,06,16,13,46,15.20
2016,06,16,13,47,15.20
2016,06,16,13,48,15.20
2016,06,16,13,49,15.30
2016,06,16,13,50,15.30
2016,06,16,13,51,15.30
2016,06,16,13,52,15.40
2016,06,16,13,53,15.30
2016,06,16,13,54,15.30
2016,06,16,13,55,15.30
2016,06,16,13,56,15.30
2016,06,16,13,57,15.40
2016,06,16,13,58,15.50
2016,06,16,13,59,15.50
2016,06,16,14,00,15.50
2016,06,16,14,01,15.60
2016,06,16,14,02,15.70
2016,06,16,14,03,15.70
2016,06,16,14,04,15.70
2016,06,16,14,05,15.80
2016,06,16,14,06,15.80
2016,06,16,14,07,15.80
2016,06,16,14,08,15.70
2016,06,16,14,09,15.50
2016,06,16,14,10,15.40
2016,06,16,14,11,15.20
2016,06,16,14,12,15.00
2016,06,16,14,13,15.00
2016,06,16,14,14,14.90
2016,06,16,14,15,14.80
2016,06,16,14,16,14.80
2016,06,16,14,17,14.80
2016,06,16,14,18,14.70
2016,06,16,14,19,14.80
2016,06,16,14,20,14.80
2016,06,16,14,21,14.80
2016,06,16,14,22,14.80
2016,06,16,14,23,14.90
2016,06,16,14,24,15.00
2016,06,16,14,25,15.00
2016,06,16,14,26,15.00
2016,06,16,14,27,15.10
2016,06,16,14,28,15.20
2016,06,16,14,29,15.20
2016,06,16,14,30,15.20
2016,06,16,14,31,15.20
2016,06,16,14,32,15.30
2016,06,16,14,33,15.40
2016,06,16,14,34,15.30
2016,06,16,14,35,15.30
2016,06,16,14,36,15.30
2016,06,16,14,37,15.30
2016,06,16,14,38,15.40
2016,06,16,14,39,15.60
2016,06,16,14,40,15.70
2016,06,16,14,41,15.70
2016,06,16,14,42,15.70
2016,06,16,14,43,15.80
2016,06,16,14,44,15.90
2016,06,16,14,45,15.90
2016,06,16,14,46,15.90
2016,06,16,14,47,16.00
2016,06,16,14,48,16.00
2016,06,16,14,49,16.00
2016,06,16,14,50,16.00
2016,06,16,14,51,16.00
2016,06,16,14,52,16.10
2016,06,16,14,53,16.10
2016,06,16,14,54,16.20
2016,06,16,14,55,16.30
2016,06,16,14,56,16.30
2016,06,16,14,57,16.30
2016,06,16,14,58,16.30
2016,06,16,14,59,16.40
2016,06,16,15,00,16.60
2016,06,16,15,01,16.60
2016,06,16,15,02,16.60
2016,06,16,15,03,16.60
2016,06,16,15,04,16.60
2016,06,16,15,05,16.60
2016,06,16,15,06,16.70
2016,06,16,15,07,16.70
2016,06,16,15,08,16.70
2016,06,16,15,09,16.70
2016,06,16,15,10,16.70
2016,06,16,15,11,16.60
2016,06,16,15,12,16.60
2016,06,16,15,13,16.60
2016,06,16,15,14,16.70
2016,06,16,15,15,16.80
2016,06,16,15,16,16.90
2016,06,16,15,17,17.00
2016,06,16,15,18,17.10
2016,06,16,15,19,17.10
2016,06,16,15,20,17.10
2016,06,16,15,21,17.10
2016,06,16,15,22,17.10
2016,06,16,15,23,17.20
2016,06,16,15,24,17.20
2016,06,16,15,25,17.20
2016,06,16,15,26,17.20
2016,06,16,15,27,17.20
2016,06,16,15,28,17.20
2016,06,16,15,29,17.20
2016,06,16,15,30,17.20
2016,06,16,15,31,17.20
2016,06,16,15,32,17.30
2016,06,16,15,33,17.40
2016,06,16,15,34,17.60
2016,06,16,15,35,17.70
2016,06,16,15,36,17.70
2016,06,16,15,37,17.70
2016,06,16,15,38,17.80
2016,06,16,15,39,17.70
2016,06,16,15,40,17.70
2016,06,16,15,41,17.60
2016,06,16,15,42,17.60
2016,06,16,15,43,17.50
2016,06,16,15,44,17.40
2016,06,16,15,45,17.40
2016,06,16,15,46,17.30
2016,06,16,15,47,17.30
2016,06,16,15,48,17.20
2016,06,16,15,49,17.20
2016,06,16,15,50,17.30
2016,06,16,15,51,17.30
2016,06,16,15,52,17.40
2016,06,16,15,53,17.50
2016,06,16,15,54,17.50
2016,06,16,15,55,17.50
2016,06,16,15,56,17.50
2016,06,16,15,57,17.50
2016,06,16,15,58,17.50
2016,06,16,15,59,17.50
2016,06,16,16,00,17.50
2016,06,16,16,01,17.50
2016,06,16,16,02,17.40
2016,06,16,16,03,17.40
2016,06,16,16,04,17.40
2016,06,16,16,05,17.40
2016,06,16,16,06,17.30
2016,06,16,16,07,17.30
2016,06,16,16,08,17.30
2016,06,16,16,09,17.30
2016,06,16,16,10,17.30
2016,06,16,16,11,17.30
2016,06,16,16,12,17.30
2016,06,16,16,13,17.30
2016,06,16,16,14,17.30
2016,06,16,16,15,17.40
2016,06,16,16,16,17.40
2016,06,16,16,17,17.50
2016,06,16,16,18,17.60
2016,06,16,16,19,17.60
2016,06,16,16,20,17.70
2016,06,16,16,21,17.70
2016,06,16,16,22,17.70
2016,06,16,16,23,17.70
2016,06,16,16,24,17.70
2016,06,16,16,25,17.60
2016,06,16,16,26,17.50
2016,06,16,16,27,17.50
2016,06,16,16,28,17.50
2016,06,16,16,29,17.50
2016,06,16,16,30,17.60
2016,06,16,16,31,17.60
2016,06,16,16,32,17.70
2016,06,16,16,33,17.80
2016,06,16,16,34,17.80
2016,06,16,16,35,17.70
2016,06,16,16,36,17.70
2016,06,16,16,37,17.70
2016,06,16,16,38,17.70
2016,06,16,16,39,17.60
2016,06,16,16,40,17.50
2016,06,16,16,41,17.40
2016,06,16,16,42,17.40
2016,06,16,16,43,17.30
2016,06,16,16,44,17.30
2016,06,16,16,45,17.30
2016,06,16,16,46,17.30
2016,06,16,16,47,17.30
2016,06,16,16,48,17.30
2016,06,16,16,49,17.30
2016,06,16,16,50,17.30
2016,06,16,16,51,17.20
2016,06,16,16,52,17.20
2016,06,16,16,53,17.10
2016,06,16,16,54,17.10
2016,06,16,16,55,17.00
2016,06,16,16,56,16.90
2016,06,16,16,57,16.90
2016,06,16,16,58,16.80
2016,06,16,16,59,16.80
2016,06,16,17,00,16.70
2016,06,16,17,01,16.60
2016,06,16,17,02,16.60
2016,06,16,17,03,16.60
2016,06,16,17,04,16.60
2016,06,16,17,05,16.60
2016,06,16,17,06,16.50
2016,06,16,17,07,16.40
2016,06,16,17,08,16.40
2016,06,16,17,09,16.40
2016,06,16,17,10,16.40
2016,06,16,17,11,16.30
2016,06,16,17,12,16.30
2016,06,16,17,13,16.30
2016,06,16,17,14,16.20
2016,06,16,17,15,16.20
2016,06,16,17,16,16.20
2016,06,16,17,17,16.20
2016,06,16,17,18,16.10
2016,06,16,17,19,16.10
2016,06,16,17,20,16.10
2016,06,16,17,21,16.00
2016,06,16,17,22,16.00
2016,06,16,17,23,16.00
2016,06,16,17,24,15.90
2016,06,16,17,25,15.90
2016,06,16,17,26,15.90
2016,06,16,17,27,15.80
2016,06,16,17,28,15.80
2016,06,16,17,29,15.80
2016,06,16,17,30,15.80
2016,06,16,17,31,15.80
2016,06,16,17,32,15.80
2016,06,16,17,33,15.80
2016,06,16,17,34,15.80
2016,06,16,17,35,15.80
2016,06,16,17,36,15.80
2016,06,16,17,37,15.80
2016,06,16,17,38,15.80
2016,06,16,17,39,15.80
2016,06,16,17,40,15.90
2016,06,16,17,41,15.90
2016,06,16,17,42,15.90